[[{"header":{"parameterUnit":"m.s-1","parameterCategory":1,"la1":30.2991,"la2":30.254,"lo1":-89.0895,"lo2":-89.0444,"dy":0.0017,"dx":0.0017,"nx":28,"ny":28,"refTime":"2025-04-28T09:00:00:Z","depth":0,"parameterNumber":2,"parameterNumberName":"U-component_of_WINDS"},"data":[0,0,0,0,0,0,0,0,0,0,0,0,0,0,0,0,0,0,0,0,0,0,0,0,0,0,0,0,0,0,0,0,0,0,0,0,0,0,0,0,0,0,0,0,0,0,0,0,0,0,0,0,0,0,0,0,0,0,-0.9184,-0.9184,0,-0.9162,-0.9161,-0.9161,-0.9128,-0.9127,-0.9126,-0.9126,-0.9104,-0.9104,-0.9104,0,0,0,0,0,0,0,0,0,0,0,0,0,-0.92,-0.92,-0.9184,-0.9184,-0.9184,-0.9162,-0.9161,-0.9161,-0.9128,-0.9127,-0.9126,-0.9126,-0.9104,-0.9104,-0.9104,0,0,0,0,0,0,0,0,0,0,0,0,0,-0.9187,-0.92,-0.9184,-0.9164,-0.9162,-0.9162,-0.9161,-0.9161,-0.9128,-0.9127,-0.9126,-0.9125,-0.9104,-0.9104,-0.9104,-0.9121,0,0,-0.9103,-0.9103,0,0,0,0,0,0,0,0,-0.9188,-0.9187,-0.9168,-0.9166,-0.9164,-0.9147,-0.9159,-0.9148,-0.9128,-0.9141,-0.9126,-0.9125,-0.9119,-0.9117,-0.9115,-0.912,-0.9119,-0.9103,-0.9103,-0.9103,-0.9103,0,0,0,0,0,0,0,-0.9189,-0.9187,-0.9175,-0.9167,-0.9165,-0.9157,-0.9154,-0.9157,-0.9135,-0.914,-0.9137,-0.9135,-0.9117,-0.9115,-0.9114,-0.9119,-0.9103,-0.9103,-0.9103,-0.9103,-0.9137,-0.9138,0,0,0,0,0,0,-0.9193,-0.9188,-0.9176,-0.9175,-0.9174,-0.9158,-0.9154,-0.9153,-0.9135,-0.9131,-0.9136,-0.9134,-0.9116,-0.9114,-0.9113,-0.9133,-0.9103,-0.9103,-0.9103,-0.9137,-0.9138,-0.9139,0,0,0,0,0,0,-0.9193,-0.9192,-0.9177,-0.9181,-0.9178,-0.9158,-0.9157,-0.9153,-0.9151,-0.9132,-0.9128,-0.9137,-0.9115,-0.9114,-0.9119,-0.9132,-0.9103,-0.9103,-0.9135,-0.9137,-0.9138,-0.9172,0,0,0,0,0,0,-0.9194,-0.9192,-0.9198,-0.9181,-0.9178,-0.9183,-0.9158,-0.9153,-0.9151,-0.9147,-0.9132,-0.9129,-0.9114,-0.912,-0.9119,-0.9131,-0.9103,-0.9134,-0.9136,-0.9138,-0.917,-0.9174,-0.9178,0,0,0,0,0,-0.9194,-0.9209,-0.9199,-0.9197,-0.9185,-0.9184,-0.9182,-0.9164,-0.9152,-0.9158,-0.9146,-0.913,-0.9131,-0.9121,-0.912,-0.9132,-0.9133,-0.9136,-0.9138,-0.9168,-0.9174,-0.9178,0,0,0,0,0,0,-0.9228,-0.9206,-0.9195,-0.9204,-0.9196,-0.9178,-0.9185,-0.9171,-0.9167,-0.9164,-0.9142,-0.9139,-0.9148,-0.9141,-0.913,-0.9148,-0.9129,-0.9132,-0.9153,-0.9158,-0.9162,-0.9164,-0.9103,0,0,0,0,0,-0.9236,-0.9236,-0.9218,-0.9228,-0.9224,-0.9206,-0.9204,-0.9191,-0.9182,-0.9179,-0.9167,-0.916,-0.9158,-0.9158,-0.9155,-0.9169,-0.9165,-0.9177,-0.9181,-0.9185,-0.9187,-0.9194,-0.9199,-0.9146,-0.9146,-0.9146,0,0,-0.9254,-0.9242,-0.9243,-0.9234,-0.9226,-0.9228,-0.9203,-0.9205,-0.9206,-0.9179,-0.9184,-0.9176,-0.9166,-0.9176,-0.9179,-0.9169,-0.9201,-0.9187,-0.919,-0.919,-0.9196,-0.9201,-0.9206,-0.9147,-0.9147,-0.9147,0,0,-0.9286,-0.9277,-0.9285,-0.9278,-0.9266,-0.9254,-0.9256,-0.924,-0.9233,-0.9238,-0.9218,-0.9219,-0.9217,-0.9211,-0.9207,-0.9238,-0.9223,-0.9238,-0.9261,-0.9268,-0.9272,-0.9276,-0.9287,-0.9292,-0.924,-0.924,-0.924,0,-0.931,-0.931,-0.9291,-0.9294,-0.9291,-0.9267,-0.9274,-0.9269,-0.9257,-0.9256,-0.9245,-0.9242,-0.9234,-0.9242,-0.925,-0.9248,-0.9249,-0.924,-0.9273,-0.9277,-0.928,-0.929,-0.9295,-0.9242,-0.9242,-0.9242,-0.9242,0,-0.9339,-0.934,-0.9348,-0.9337,-0.9335,-0.9341,-0.9322,-0.9323,-0.931,-0.9299,-0.9304,-0.9294,-0.9289,-0.929,-0.9278,-0.9297,-0.9291,-0.9277,-0.9258,-0.9287,-0.9297,-0.93,-0.9245,-0.9244,-0.9244,-0.9243,0,0,-0.9392,-0.9371,-0.9374,-0.9369,-0.9355,-0.9355,-0.9361,-0.9356,-0.9356,-0.935,-0.9353,-0.9353,-0.934,-0.9336,-0.9323,-0.9329,-0.9355,-0.9314,-0.9314,-0.9323,-0.9376,-0.9386,-0.9391,-0.9345,-0.9346,-0.9346,-0.9377,0,-0.9422,-0.9429,-0.9411,-0.9423,-0.9424,-0.9401,-0.9405,-0.9398,-0.9388,-0.9387,-0.9376,-0.9376,-0.9359,-0.9357,-0.9362,-0.9351,-0.9365,-0.9348,-0.9349,-0.9349,-0.9352,-0.9396,-0.9408,-0.9437,-0.938,-0.9381,-0.9381,0,-0.9457,-0.9452,-0.9464,-0.9449,-0.9449,-0.9453,-0.9448,-0.9447,-0.9438,-0.9431,-0.9427,-0.9412,-0.9416,-0.9398,-0.9404,-0.9393,-0.9392,-0.9387,-0.9388,-0.9387,-0.9367,-0.9397,-0.9446,-0.945,-0.9387,-0.9387,-0.9386,0,-0.9495,-0.9491,-0.9497,-0.9494,-0.9477,-0.9481,-0.9474,-0.9464,-0.9463,-0.9458,-0.9457,-0.9453,-0.9451,-0.9448,-0.9433,-0.9421,-0.9441,-0.9422,-0.9435,-0.9436,-0.9441,-0.9441,-0.949,-0.944,-0.944,-0.944,-0.944,0,-0.953,-0.9538,-0.9514,-0.9518,-0.9526,-0.9507,-0.9516,-0.9507,-0.9499,-0.9501,-0.9481,-0.9484,-0.9463,-0.9464,-0.9452,-0.9459,-0.9458,-0.9453,-0.9449,-0.9454,-0.9455,-0.9454,-0.9451,-0.9441,-0.9441,-0.9441,-0.9441,0,-0.9574,-0.9558,-0.9563,-0.9547,-0.9543,-0.955,-0.9537,-0.954,-0.9529,-0.9532,-0.9532,-0.9515,-0.9515,-0.9499,-0.9495,-0.9487,-0.95,-0.9493,-0.9503,-0.95,-0.9515,-0.9514,-0.9565,-0.9571,-0.9518,-0.9518,-0.9519,0,-0.9598,-0.9603,-0.9588,-0.9587,-0.9582,-0.9582,-0.958,-0.9561,-0.956,-0.9551,-0.9556,-0.9554,-0.9551,-0.9552,-0.9539,-0.9537,-0.9529,-0.9548,-0.9529,-0.9534,-0.953,-0.953,-0.9531,-0.9552,-0.9552,-0.9553,-0.9553,0,-0.9641,-0.9633,-0.9631,-0.9626,-0.9625,-0.962,-0.9614,-0.9616,-0.9595,-0.9595,-0.9595,-0.9593,-0.9589,-0.9588,-0.9583,-0.9576,-0.9562,-0.9559,-0.9562,-0.9568,-0.9573,-0.9571,-0.9514,-0.9558,-0.9558,-0.9557,-0.9557,-0.9557,-0.9676,-0.968,-0.9669,-0.9668,-0.9662,-0.9657,-0.9659,-0.9649,-0.9647,-0.9643,-0.9632,-0.9633,-0.9625,-0.9617,-0.9612,-0.9613,-0.9604,-0.9608,-0.9609,-0.9611,-0.9614,-0.9573,-0.9612,-0.9612,-0.9612,-0.9611,-0.9611,0,-0.9719,-0.9711,-0.971,-0.9702,-0.9701,-0.9687,-0.968,-0.9681,-0.9682,-0.9675,-0.9673,-0.9672,-0.9671,-0.9658,-0.9656,-0.9659,-0.9652,-0.9659,-0.9659,-0.9657,-0.9622,-0.962,-0.9664,-0.9664,-0.9664,-0.9664,-0.9664,-0.9664,-0.9741,-0.9747,-0.9738,-0.9741,-0.9733,-0.9734,-0.9731,-0.9727,-0.9722,-0.9722,-0.972,-0.9712,-0.9703,-0.97,-0.9698,-0.9695,-0.9695,-0.9704,-0.9698,-0.9665,-0.966,-0.9655,-0.9653,-0.9704,-0.9704,-0.9733,-0.9734,-0.9734]},{"header":{"parameterUnit":"m.s-1","parameterCategory":1,"la1":30.2991,"la2":30.254,"lo1":-89.0895,"lo2":-89.0444,"dy":0.0017,"dx":0.0017,"nx":28,"ny":28,"refTime":"2025-04-28T09:00:00:Z","depth":0,"parameterNumber":3,"parameterNumberName":"V-component_of_WINDS"},"data":[0,0,0,0,0,0,0,0,0,0,0,0,0,0,0,0,0,0,0,0,0,0,0,0,0,0,0,0,0,0,0,0,0,0,0,0,0,0,0,0,0,0,0,0,0,0,0,0,0,0,0,0,0,0,0,0,0,0,4.3141,4.3141,0,4.3111,4.3111,4.311,4.3021,4.3019,4.3017,4.3015,4.2986,4.2987,4.2988,0,0,0,0,0,0,0,0,0,0,0,0,0,4.3124,4.3125,4.3141,4.3141,4.3141,4.3111,4.3111,4.311,4.3021,4.3019,4.3016,4.3014,4.2986,4.2987,4.2988,0,0,0,0,0,0,0,0,0,0,0,0,0,4.3117,4.3125,4.3141,4.3093,4.3088,4.3111,4.3111,4.311,4.3022,4.3019,4.3016,4.3013,4.2985,4.2987,4.2988,4.3057,0,0,4.2993,4.2994,0,0,0,0,0,0,0,0,4.3117,4.3117,4.31,4.3096,4.3091,4.3067,4.3094,4.3092,4.3022,4.3047,4.3015,4.3012,4.3015,4.3014,4.3015,4.3055,4.3054,4.2993,4.2994,4.2995,4.2995,0,0,0,0,0,0,0,4.3118,4.3118,4.3129,4.31,4.3094,4.3073,4.3068,4.3093,4.3048,4.3045,4.3038,4.3036,4.3012,4.3014,4.3014,4.3054,4.2993,4.2994,4.2995,4.2996,4.3148,4.3151,0,0,0,0,0,0,4.3125,4.3119,4.313,4.3128,4.3097,4.3075,4.3071,4.3077,4.3047,4.304,4.3038,4.3031,4.3012,4.3012,4.3012,4.3089,4.2995,4.2996,4.2997,4.3145,4.3148,4.3152,0,0,0,0,0,0,4.3125,4.3127,4.3132,4.3122,4.3121,4.3079,4.3087,4.3078,4.308,4.3043,4.3034,4.3048,4.301,4.301,4.3046,4.3087,4.2997,4.2998,4.3141,4.3146,4.315,4.3244,0,0,0,0,0,0,4.3125,4.3127,4.3153,4.3123,4.3122,4.3166,4.309,4.308,4.3082,4.3073,4.3049,4.3043,4.3008,4.3044,4.3048,4.3087,4.3,4.3137,4.3143,4.3149,4.3237,4.3252,4.3264,0,0,0,0,0,4.3125,4.3181,4.3154,4.3156,4.3152,4.3168,4.3167,4.3125,4.3086,4.3111,4.3087,4.3043,4.3082,4.3049,4.3052,4.3093,4.3134,4.3141,4.3148,4.3231,4.3249,4.3264,0,0,0,0,0,0,4.3217,4.3176,4.3146,4.3195,4.3185,4.3153,4.3183,4.3145,4.3148,4.3139,4.3088,4.3083,4.3126,4.3113,4.3076,4.3157,4.3101,4.3109,4.3163,4.318,4.3193,4.3194,4.3001,0,0,0,0,0,4.3243,4.3259,4.3222,4.3269,4.3266,4.3226,4.3231,4.32,4.3188,4.3184,4.3162,4.3154,4.3163,4.3171,4.3179,4.3236,4.3229,4.3266,4.3279,4.329,4.3297,4.3325,4.334,4.3175,4.3174,4.3174,0,0,4.3297,4.3277,4.329,4.3287,4.3276,4.3293,4.3223,4.3245,4.3257,4.3187,4.3219,4.3204,4.319,4.3237,4.3256,4.3227,4.3341,4.3299,4.3308,4.3309,4.3334,4.3349,4.3363,4.3179,4.3178,4.3178,0,0,4.3403,4.339,4.3426,4.3417,4.3401,4.3374,4.3383,4.3356,4.3343,4.3374,4.3322,4.3336,4.3355,4.3347,4.3346,4.345,4.3409,4.3454,4.3522,4.355,4.3563,4.3575,4.361,4.3624,4.3461,4.3462,4.3462,0,4.3472,4.3496,4.345,4.3475,4.3475,4.3412,4.3449,4.3442,4.343,4.3431,4.3399,4.3421,4.3408,4.3451,4.3476,4.3478,4.3486,4.3455,4.3565,4.3576,4.3586,4.3619,4.3633,4.3467,4.3466,4.3466,4.3465,0,4.358,4.3598,4.3629,4.3618,4.3622,4.3652,4.3612,4.3621,4.359,4.3567,4.3599,4.3581,4.3583,4.3592,4.3562,4.3631,4.3613,4.3574,4.3517,4.3608,4.3638,4.3651,4.3475,4.3473,4.3471,4.347,0,0,4.3743,4.3706,4.3718,4.3711,4.3689,4.3702,4.373,4.3731,4.374,4.3735,4.3756,4.3773,4.3737,4.3735,4.3704,4.3729,4.3811,4.3687,4.3686,4.3709,4.3884,4.3912,4.3928,4.3785,4.3787,4.3789,4.3885,0,4.3842,4.3886,4.3846,4.3898,4.3913,4.3854,4.3878,4.3868,4.3847,4.3857,4.3835,4.3847,4.3799,4.3797,4.382,4.3797,4.3845,4.3789,4.3804,4.3805,4.3807,4.3944,4.3974,4.4065,4.3897,4.3899,4.39,0,4.3963,4.3961,4.4014,4.3988,4.3993,4.4015,4.4013,4.4023,4.4011,4.3994,4.3992,4.3954,4.398,4.3926,4.396,4.3923,4.3927,4.3917,4.3919,4.3917,4.3857,4.3944,4.4093,4.4106,4.3919,4.3917,4.3916,0,4.4073,4.4085,4.4118,4.4114,4.4085,4.4102,4.4091,4.4075,4.4078,4.4077,4.4078,4.4081,4.4081,4.4084,4.4048,4.4012,4.4087,4.4029,4.4073,4.4074,4.4089,4.4088,4.4239,4.4096,4.4096,4.4095,4.4095,0,4.4187,4.4221,4.4167,4.4187,4.4224,4.4178,4.4216,4.4199,4.4186,4.4202,4.4153,4.4169,4.4121,4.4132,4.4104,4.4136,4.4138,4.4124,4.4116,4.4128,4.4129,4.4128,4.412,4.4099,4.4098,4.4097,4.4097,0,4.4315,4.4281,4.4312,4.4282,4.4275,4.4304,4.4278,4.4296,4.4272,4.4293,4.4295,4.4258,4.4269,4.4233,4.4239,4.422,4.4267,4.4249,4.4271,4.4265,4.4309,4.4305,4.4463,4.4481,4.4328,4.433,4.4331,0,4.4389,4.4414,4.4386,4.4393,4.4384,4.4396,4.4398,4.4355,4.436,4.4347,4.4366,4.4373,4.4375,4.4396,4.437,4.4373,4.4354,4.441,4.4355,4.4365,4.4353,4.4351,4.4353,4.442,4.4422,4.4424,4.4425,0,4.4523,4.4504,4.4509,4.4509,4.4513,4.4511,4.4505,4.4514,4.4467,4.4475,4.4485,4.4487,4.4492,4.4499,4.4498,4.4486,4.4448,4.4443,4.4453,4.4464,4.4474,4.4467,4.43,4.4439,4.4438,4.4436,4.4436,4.4435,4.4625,4.4644,4.4627,4.4634,4.4625,4.4621,4.4636,4.4614,4.4621,4.4621,4.4595,4.461,4.4597,4.459,4.4583,4.4594,4.4569,4.4584,4.4587,4.4591,4.4598,4.4474,4.4594,4.4594,4.4593,4.4593,4.4593,0,4.4754,4.474,4.4748,4.4741,4.4747,4.471,4.4702,4.4709,4.4723,4.4713,4.4717,4.4728,4.4734,4.4709,4.4712,4.4726,4.4708,4.4728,4.4726,4.4724,4.4621,4.4611,4.4742,4.4742,4.4742,4.4742,4.4742,4.4742,4.4822,4.4852,4.4831,4.4856,4.4842,4.4856,4.4854,4.485,4.4842,4.4856,4.4861,4.4844,4.4828,4.483,4.4834,4.4827,4.4829,4.4855,4.4841,4.4746,4.4731,4.4717,4.4707,4.4856,4.4856,4.4942,4.4943,4.4944]}]]